Overview Statistics Trail Chart Weather Telemetry Raw packets
 

This is the latest recevied weather packets stored in our database for station/object K6GMW. If no packets are shown the sender has not sent any weather packets the latest 10 day(s).

<< 72 73 74 75 76 77 78 >>
Time Temp. Humidity Pressure Rain* Wind** Luminosity Snow
1788111073 35° C 45% 1017.8 hPa 0 mm - 908 W/m² -
1788110770 35° C 45% 1017.9 hPa 0 mm - 889 W/m² -
1788110467 35° C 45% 1017.9 hPa 0 mm - 898 W/m² -
1788110162 35.56° C 45% 1017.9 hPa 0 mm - 889 W/m² -
1788109857 35° C 47% 1018.2 hPa 0 mm - 883 W/m² -
1788109556 35° C 46% 1018.3 hPa 0 mm - 882 W/m² -
1788109255 35° C 46% 1018.3 hPa 0 mm - 870 W/m² -
1788108951 34.44° C 48% 1018.2 hPa 0 mm - 861 W/m² -
1788108646 33.89° C 49% 1018.4 hPa 0 mm - 856 W/m² -
1788108343 33.89° C 48% 1018.4 hPa 0 mm - 846 W/m² -
1788108038 33.89° C 50% 1018.4 hPa 0 mm - 842 W/m² -
1788107735 33.89° C 49% 1018.5 hPa 0 mm - 828 W/m² -
1788107434 33.89° C 50% 1018.2 hPa 0 mm - 828 W/m² -
1788107131 33.89° C 52% 1018.5 hPa 0 mm - 816 W/m² -
1788106831 33.89° C 51% 1018.5 hPa 0 mm - 804 W/m² -
1788106526 33.89° C 51% 1018.4 hPa 0 mm - 789 W/m² -
1788106226 33.33° C 51% 1018.5 hPa 0 mm - 778 W/m² -
1788105922 33.33° C 52% 1018.6 hPa 0 mm - 768 W/m² -
1788105617 32.78° C 53% 1018.5 hPa 0 mm - 758 W/m² -
1788105313 32.78° C 53% 1018.6 hPa 0 mm - 747 W/m² -
1788105009 32.78° C 54% 1018.6 hPa 0 mm - 727 W/m² -
1788104703 32.78° C 54% 1018.8 hPa 0 mm - 718 W/m² -
1788104412 32.78° C 54% 1018.6 hPa 0 mm - 702 W/m² -
1788104095 32.22° C 56% 1018.8 hPa 0 mm - 687 W/m² -
1788103794 32.22° C 56% 1018.8 hPa 0 mm - 673 W/m² -

* Rain latest hour (hover to see other rain measurements)
** Current wind speed in m/s (hover to see current wind gust speed)